Other Surface Observations
Issued by NWS Tucson, AZ

Home | Current Version | Previous Version | Text Only | Print | Product List | Glossary On
Versions: 1 2 3 4 5 6 7 8 9 10 11 12 13 14 15 16 17 18 19 20 21 22 23 24 25 26 27 28 29 30 31 32 33 34 35 36 37 38 39 40 41 42 43 44 45 46 47 48 49 50
000
SXUS55 KTWC 221116
OSOTWC

WEATHER ROUNDUP FOR SOUTHEAST ARIZONA
NATIONAL WEATHER SERVICE TUCSON AZ
415 AM MST MON SEP 22 2014

AZZ504>506-514-221215-
LOCATION       SKY/WX    TMP DP  RH WIND       PRES   REMARKS
TUCSON         PTCLDY    76  63  64 E10       30.05R
DAVIS-MONTHAN  CLEAR     75  63  65 SE9       30.03S
CHILDRENS PARK N/A       79  62  57 SE6               PIMA CO DEQ
ALVERNON/22ND  N/A      N/A N/A N/A N/A               PIMA CO DEQ
CHERRY/GLENN   N/A      N/A N/A N/A N/A               PIMA CO DEQ
TANGERINE      N/A       76 N/A N/A S4                PIMA CO DEQ
CONTL RANCH    N/A       81  63  54 S8                PIMA CO DEQ
GRANT/1ST      N/A       79  63  58 SE7               PIMA CO DEQ
CRAYCROFT/22ND N/A      N/A N/A N/A N/A               PIMA CO DEQ
GOLFLINKS/KOLB N/A       77  63  61 SE6               PIMA CO DEQ
AJO/12TH       N/A       77  63  63 SE10              PIMA CO DEQ
SAGUARO EAST   N/A      N/A N/A N/A N/A               PIMA CO DEQ
FAIRGROUNDS    N/A       71 N/A N/A SE10              PIMA CO DEQ
SAGUARO        N/A       73  66  78 W3                *SABINO CYN
SAN CARLOS     N/A       75  65  70 CALM              *SAN CARLOS
GREEN VALLEY   N/A       73  63  71 SW6               PIMA CO DEQ
HORSE CAMP CYN N/A       69  62  78 E12G17            *ARAVAIPA CYN
RINCON MTNS    N/A       56  47  72 E2                *NR MANNING CAMP
$$

AZZ509>511-221215-
LOCATION       SKY/WX    TMP DP  RH WIND       PRES   REMARKS
SAFFORD        CLOUDY    71  64  78 E16       30.10S
STRAY HORSE    N/A       55  54  97 NE3               *
TRAIL CABIN    N/A       58  57  96 E6G10             *N OF GRANVILLE
BLACK HILLS    N/A       76  63  64 SE9G18            *N OF FT THOMAS
DRY LAKE       N/A       56  56  99 E4G10             *NATANES MTNS
NOON CREEK     N/A       68  62  81 W2                *PINALENO MTNS
COLUMBINE      N/A       53  52  96 CALM              *PINALENO MTNS
GUTHRIE        N/A       59  58  98 NE10G19           *SW OF GUTHRIE
$$

AZZ502-503-513-221215-
LOCATION       SKY/WX    TMP DP  RH WIND       PRES   REMARKS
NOGALES        CLEAR     64  60  87 NW3       30.12S
SELLS          N/A       72  59  63 NE4               *
SASABE         N/A       66  64  92 CALM              *ALTAR VLY
HOPKINS        N/A       60  52  76 E6G17             *SANTA RITA MTNS
CARR CYN       N/A       59  56  90 SW3               *W OF HEREFORD
$$

AZZ507-508-512-221215-
LOCATION       SKY/WX    TMP DP  RH WIND       PRES   REMARKS
SIERRA VISTA   PTCLDY    63  61  94 SW3       30.17S
DOUGLAS        MOCLDY    65  64  97 N6        30.14S
EMPIRE MTNS    N/A       61  59  92 W3                *LAS CIENEGAS NCA
MULESHOE RANCH N/A       64  62  93 S3                *PRESERVE
HEADQUARTERS   N/A       62  61  96 E3                *CHIRICAHUA MTNS
$$

.............................NOTES.............................
THIS IS AN AUTOMATED COLLECTIVE WITH MINIMAL QUALITY CONTROL.
PIMA CO DEQ SITES HAVE NONSTANDARD WIND SENSOR HEIGHTS.
PIMA CO DEQ SITES DO NOT REPORT WIND GUSTS.
* INDICATES WIND SENSORS LOCATED AT 20 FEET INSTEAD OF 33 FEET.
..............................KEY..............................
SKY/WX - SKY CONDITION/WEATHER
TMP    - TEMPERATURE IN FAHRENHEIT
DP     - DEWPOINT IN FAHRENHEIT
RH     - RELATIVE HUMIDITY IN PERCENT
WIND   - DIRECTION AND SPEED IN MILES PER HOUR (MPH)
VRB    - VARIABLE WIND DIRECTION
PRES   - MEAN SEA LEVEL PRESSURE IN INCHES OF MERCURY
         F - FALLING PRESSURE   R - RISING PRESSURE
         S - STEADY PRESSURE
VSB    - VISIBILITY IN MILES
HX     - HEAT INDEX IN FAHRENHEIT
WCI    - WIND CHILL INDEX IN FAHRENHEIT
N/A    - NOT AVAILABLE
AFB    - AIR FORCE BASE
         DAVIS-MONTHAN IS DAVIS-MONTHAN AIR FORCE BASE
CYN    - CANYON
MTNS   - MOUNTAINS
NCA    - NATIONAL CONSERVATION AREA
NR     - NEAR
VLY    - VALLEY
CONTL  - CONTINENTAL
PIMA CO DEQ - PIMA COUNTY DEPT OF ENVIRONMENTAL QUALITY



USA.gov is the U.S. government's official web portal to all federal, state and local government web resources and services.